[Date Prev][Date Next][Thread Prev][Thread Next][Date Index][Thread Index]

[jamsat-news:1060] jas2info #129



=========================   ºÇ¿·¾ðÊó   ==============================

        Last updated ¡§Fri.2-Apr.-1999 18:00 (JST) ¡ô129

====================================================================
   
     ±ÒÀ±¾ðÊ󡡣ƣϥ·¥ê¡¼¥º¤Îµ°Æ»Í×ÁÇ¡¢¥Æ¥ì¥á¥È¥ê¡¢£Ñ£Ó£Ï¤Î¾õ¶·Åù¤ò
   ¤Þ¤È¤á¤Æ¤ß¤Þ¤·¤¿¡¥

  1¡Ë  £Æ£Ï¡Ý£²£¹¡Ê¤Õ¤¸£³¹æ¡Ë¤Ï£Ê£Á£Ò£Ì¤Î¥Û¡¼¥à¥Ú¡¼¥¸¤Î¤È¤¦¤ê¡¢£´·î£²Æü
    ¡Ê¶â¡Ë£±£´¡§£µ£´¡Ê£Ê£Ó£Ô¡Ë¤Î¥Ñ¥¹¤Ç¤Ï£Ê£Á¥â¡¼¥É¤Î¥¢¥Ê¥í¥°·Ï±¿ÍѤˤʤäÆ
     ¤ª¤ê¡¢¥Æ¥ì¥á¥È¥ê¤Ï£Ã£×¥â¡¼¥ë¥¹¤Î¿®¹æ¤ÇÎ϶¯¤¯£Ò£Ó£µ£¹¡Ü£±£°£ä£â¤Ç°ÂÄꤷ
     ¤Æʹ¤³¤¨¤Þ¤·¤¿¡¥
       
 ¢£ µ°Æ»Í×ÁÇ£±¡§¡Öjamsat¡¼keps¡§£¸£·£¶¡×¤è¤ê
                 SB KEPS @ AMSAT  $ORB99092.N
                 2Line Orbital Elements 99092.AMSAT

  HR AMSAT ORBITAL ELEMENTS FOR AMATEUR SATELLITES IN NASA FORMAT
  FROM WA5QGD FORT WORTH,TX April 2, 1999
  SEND SUBSCRIBE/UNSUBSCRIBE TO majordomo@amsat.org ONLY
  BID: ORB99092.N

 DECODE 2-LINE ELSETS WITH THE FOLLOWING KEY:
 1 AAAAAU 00  0  0 BBBBB.BBBBBBBB  .CCCCCCCC  00000-0  00000-0 0  DDDZ
 2 AAAAA EEE.EEEE FFF.FFFF GGGGGGG HHH.HHHH III.IIII JJ.JJJJJJJJKKKKKZ
 KEY: A-CATALOGNUM B-EPOCHTIME C-DECAY D-ELSETNUM E-INCLINATION F-RAAN
 G-ECCENTRICITY H-ARGPERIGEE I-MNANOM J-MNMOTION K-ORBITNUM Z-CHECKSUM

 TO ALL RADIO AMATEURS BT

  FO-29
  1 24278U 96046B   99090.39595879  .00000055  00000-0  95110-4 0  2353
  2 24278  98.5507  51.9650 0351051 295.7634  60.7668 13.52665273129292
   
 ¢£ µ°Æ»Í×ÁÇ£²¡§¡Öjamsat¡¼keps¡§£¸£·£µ¡×¤è¤ê
                 SB KEPS @ AMSAT  $ORB99092.O
                 Orbital Elements  99092.OSCAR

  HR AMSAT ORBITAL ELEMENTS FOR OSCAR SATELLITES
  FROM WA5QGD FORT WORTH,TX April 2, 1999
  SEND SUBSCRIBE/UNSUBSCRIBE TO majordomo@amsat.org ONLY
  BID: ORB99092.O
  TO ALL RADIO AMATEURS BT

 Satellite: FO-29
 Catalog number: 24278
 Epoch time:      99090.39595879
 Element set:     235
 Inclination:       98.5507 deg
 RA of node:        51.9650 deg
 Eccentricity:    0.0351051
 Arg of perigee:   295.7634 deg
 Mean anomaly:      60.7668 deg
 Mean motion:   13.52665273 rev/day
 Decay rate:        5.5e-07 rev/day^2
 Epoch rev:           12929
 Checksum:              354
 
 -----------------------------------------------------------
  £²)£Æ£Ï¡Ý£²£¹¡Ê¤Õ¤¸£³¹æ¡Ë¤Î £´·î£²Æü¡Ê¶â¡Ë¤Î£Ê£Á¥¢¥Ê¥í¥°¥Æ¥ì¥á¥È¥ê¤Î
    °ìÉôʬ¤Ï¼¡¤Î¤è¤¦¤Ë¤Ê¤Ã¤Æ¤¤¤Þ¤·¤¿¡¥£²Æü°ÊÁ°¤Î¥Ç¡¼¥¿¤â·Ç¼¨¤·¤Æ¤ª¤­¤Þ¤¹¡¥
 
  AS12955C1 2Apr99
  JST  14:54 - 15:10



 HI HI A6 C7 88 55 0A A7 FF 0D 00 00 85 5E 67 60 95 91 B0    B1 AE B2 B2 AE 
 HI HI A6 C7 88 55 10 A7 FF 0D 00 00 40 5F 77 60 95 91 B0 AF B1 AE B2 B2 AE 
 HI HI A6 C7 8O 55 15 A7 FF 0D 00 00 9I 5E    61 94 91 B0 94 B1 AE B2 B2 AE 
 HI HI A6 C7 88 55 1F A7 FF 0D 00 00  4 8B    61 95 91 B0 91 B1 AE B2 B2 AF 
 HI HI A6 C7 88 55           0 0D 00 3C    66 61 95 91 B0 6D B0 AD B2 B2 AF 
 HI HI A6 C7 88 5H  9 A7 FF 0D 00 00 53 8D 82 61 95 92 B0 83 B0 AD B2 B2 AF 
 HI HI A6 C7 88 55 04 A7 FF 0D 00 00 51 93 8F 60 95 92 B0 8D B0 AD B1 B1 AF 
 HI HI A6 C7 88 55 09 A7 FF 0D 00 00 4D 8E 72 61 95 91 B0 86 B0 AD B1 B1 AF 
 HI HI A6 C7 88 55 0E A7 FF 0D 00 00 4C 8F 68 61 95 92 B0 85 B0 AD B1 B1 AF 
 HI HI A6 C7 88 55 13 A7 FF 0D 00 00 40 89 84 60 95 92 B0 8A B0 ES H1 B1 AF 
 HI HI A6 C7 88 55 19 A7 FF 0D 00 00 43 6E 88 61 95 92 B0 7E B0 AD B1 B1 AF 
 HI HI A6 C7 88 55 1E A7 FF 0D 00 00 5E 75 6E 61 95 92 B0 79 B0 AD B1 B1 AF 
 HI HI A6 C7 88 55 03 A7 FF 0D 00 00 4F 98 6E 61 95 92 B0 8D B0 AD B1 B1 AF 
 
  AS12942C1  1Apr99
  JST 16:02 - 16:05
                                                   92 B0 64 B2 AD AE B0 AE 
 HI HI A6 C7 88 55 17 9B FF 0D 00 00 50 33 7B 61 95 92 B0 8     AD AE B0 AE 
 HI HI A6 C7 88 55 1C 9B FF 0D 00 00 7B 28 8B 61 95 92 B0 73 B1 AD AE B0 AF 
 HI HI A6 C7 88 55 1E 9B FF 0D 00 00 8  2B 79 61 96 92 B0 50 B1 AD AE B0 AF 
 HI HI A6 C7 88 55 06 9B FF 0D 00 00    3F 72 61 95 92 B0       AE AF B0 AF 
 HI HI A6 C7 88 55 0C 9B FF 0D 00 00 49 31 83 61 96 92 B0 A2 B1 AE AF B0 AF  

  AS12941C1  1Apr99
  JST 14:14 - 14:20

 HI HI A6 C7 88 55 05 98 FF 1A 00 00 4E 57 92 61 96 92 BO Z9 B2 AE AE B0 AF 
 HI HI A6 C7 88 55 0A 98 FF 0D 00 00 5A 39 8C 61 95 92 B0 78 B2 AE AE B0 AF 
 HI HI A6 C7 88 55 0F 98 FF 0D 00 00 7B 4B 81 61 96 92 B1 69 B2 AE AE AF AF 
 HI HI A6 C7 88 55 14 98 0A 0D 00 05 5C 81 80 61 96 93 B0 91 B2 AE AE AE AF 
 HI HI A6 C7 88 51 1A 99 FF 0D 00 00 36 67 91 61 96 92 B0 81 B1 AE AE AF AF 
 HI HI A6 C7 88 55 1E 99 FF 00 00 00 64 2F 8D 61 96 92 B1 7A B1 AD AE AF AF 
 HI HI A6 C7 88 55 04 9B FF 0D 00 00 89 6B 74 61 96 93 B0 5F B1 AD AE AF AF 
 HI HI A6 C7 88 51 09 9B FF 0D 00 00       86 61 96 93 B0 6C B1 AD AE AE AF 
 HI HI A6 C7 88 51 0E 9B FF 1A 00 00 37 4B 8D 61 96 93 B0    B1 AD AE AE AF 
 
  AS12940C1  1Apr99
  JST  12:31 - 12:33



 HI HI A6 C7 85 55 15 98 FF 1A 00 00 5E 2F 82 61 96 93 B0 6C B2 AE AE B0 AF 
  
  AS12929C1  31Mar99
  JST  16:50 - 16:58

 HI HI A6 C7 88 55 1C 98 FF 1D 00 00 94  6 66 60 95 92 B0 9P B0 B0 B1 AF AF 
 HI HI A6 C7 88 55 0C 98 FF 0D 00 00 7   1 85 60 95 92 B0  6 B0 B0 B1 AF AF 
 HI HI A6 C7 88 55 1E 98 FF 0D 00 00 84 8F 74 60 95 92 B0 6F B0 B0 B1 AF AF 
 HI HI A6 C7 88 55 07 98 FF 0D 00 00 88 92 71 61 96 92 B0 5D B0 B0 B1 AF AF 
 HI HI A6 C7 88 55 1D 98 FF 0D 00 00 89 93 83 61 96 92 B0 7C B1 AF B1 AF AF 
 HI HI A6 C7 88 55 02 98 FF 0D 00 00 8A 6D 87 61 96 92 B0 4  B0 AF B0 AF AF 
 HI HI A6 C7 88 55 07 98 FF 0D 00 00 6E 79 76 61 96 92 B0 73 B0 AF B0 AF AF 
 HI HI A6 C7 88 55 0D 98 FF 0D 00 00 7D A0 71 60 96 93 B0 6D B0 AF B0 AF AF 
 HI HI A6 C7 88 55 12 98 FF 1A 00 00 A2 85 91 61 99 93 B0  

  AS12928C1  31Mar99
  JST 16:50 -  16:58

                                             60 95 92 B0 91 B4 AE B2 B5 BO 
 HI HI A6 C7 88 55 14 7E FF 1E 0A 00 E0 85    60 95 92 B0 7F B4 AE B2 B5 B0 
 HI HI A6 C7 88 55 19 8D FF 00 00 00  2 80 6E 60 95 92 B0 8E B4 AE B2 B5 B0 
 HI HI A6 C7 88 51 1F 8D FF 0D 00 00 7A 9A 64 60 95 92 B0    B4 AE B2 B4 B0 
 HI HI A6 C7 88 51 04 8E FF 0D 00 00 6E 9E 6E 60 95 92 B0 6F B4 AE B2 B4 B0 
 HI HI A6 C7 88 51 09 8E FF 0D 00 00 3F 8E 63 61 95 92 B0 76 B4 AD B1 B4 B0 
 HI HI A6 C7 88 51 0E 8F FF 0D 00 00 E2 8D 78 61 96 92 B0 90 B3 AD B1 B4 B0 
 HI HI A6 C7 88 5I                      9F 88 61 96 92 B0 83 B3 AD B1 B4 B0 
 HI HI A6 C7 88 55 19 8F FF 1E 00 00 53 A4 73 61 96 93 B0 79 B3 AD B1 B4 B0 
 HI HI A6 C7 88 55 1E 8F FF FF 1A 00 00 47 5D 61 96 93 B0 6A B3 AD B1 B4 B0 
 HI HI A6 C7 88 55 03 8F FF 0D 00 00 4C 93 72 61 96 92 B0 72 B3 AD B1 B4 B0 
 HI HI A6 C7 88 55 09 90 FF 0D 00 00 49 8F 8F 61 96 93 B0 B6 B3 AD B1 B4 B0 
 HI HI A6 C7 88 55 0E 91 FF 0D 00 00 50 86 7C 61 96 93 B0 7D B3 AD B1 B4 B0 
 HI HI A6 C7 88 51 14 92 FF 1A 00 00 59 92 66 61 96 93 B0 9D B3 AD B1 B3 B0 
 HI HI A6 C7 88 51 19 93 FF 0D 00 00 48 9E 7A 61 96 93 B0 5C B3 AC B1 B3 B0 
 HI HI A6 C7 88 51 1E 94 FF 0D 00 00 37 7A 94 61 96 93 B0 72 B2 AC B0 B3 B0 
 HI HI A6 C7 88 51 04 95 FF 0D 00 00 56 5K 7F 61 97 93 B0 8C B2 AC B0 B3 B0 
 HI HI A6 C7 88 51 09 95 FF 0D 00 00 72 83 6C 61 97 93 B0 91 B2 AC B0 B3 B0 
 HI HI A6 C7 88 51 0F 96 FF 0D 00 00 51 AC 77 61 97 93 B0 67 B2 AC B0 B2 B0 
 HI HI A6 C7 88 51 1A 97 FF 0D 00 00 4B 3D 83 61 97 93 B0 66 B1 AC B0 B2 B0
 HI HI A6 C7 88 51 1F 98 FF OI 00 00  0 88 58 61 97 93 B0 76 B1 AC B0 B2 B0

  AS12915C1  30Mar99
  JST   15:54 - 16:10

 HI HI A6 C7 88 51 03 81 FF 0D 00 00 4A 7E 7A 61 95 92 B0 96 B4 B3 B4 B2 B2 
 HI HI A6 C7 88 51 07 81 0A 0D 00 00 00 83 8A 60 95 92 B0 BF B4 B3 B4 B2 B2 
 HI HI A6 C7 88 51 0C 81 FF 0D 00 00 8A 47 81 61 96 92 B0 7D B3 B3 B4 B2 B2 
 HI HI A6 C7 88 51 12 81 FF 0D 00 00 53 36 92 61 96 93 B0    B3 B3 B4 B2 B2 
 HI HI A6 C7 88 51 17 81 FF 0D 00 00 55    79 61 96 93 B0 81 B3 B3 B4 B2 B2 
 HI HI A6 C7 88 51 1D 81 FF 0D 00 00 85 73 8B 61 96 93 B0 C0 B3 B3 B4 B2 B2 
 HI HI A6 C7 88 51 12 81 FF 0D 00 00 8C 5E 7D 61 96 93 EE 71 B3 B2 B3 B2 B2 
 HI HI A6 C7 88 51 07 81 FF 0D 00 00 70 3C 8F 61 96 93 B0 5A B3 B2 B3 B2 B2 
 HI HI A6 C7 88 51 0D 81 0A 0D 00 00 6D 50 80 61 97 93 B0 67 B3 B2 B3 B2 B2 
 HI HI A6 C7 88 51 12 81 FF 0D 00 00 7D 58 88 61 97 93 B0 66 B3 B2 B3 B2 B2 
 HI HI A6 C7 88 51 18 81 FF 0D 00 00    55 89 61 97 93 B0 4F B3 B1 B3 B2 B2 
 HI HI A6 C7 88 51 1D 81 FF 0D 00 00 86 52 8A 61 97 93 B0 54 B3 B1 B3 B1 B2 
 HI HI A6 C7 88 51 03 81 1E 0D 00 00 89 48 8A 61 97 93 B0 E3 B3 B1 B3 B2 B2 
 HI HI A6 C7 88 51 08 81 FF 0D 00 00 79 37 86 61 97 93 B0 5C B3 B1 B3 B2 B2 
 HI HI A6 C7 88 51 0E 81 FF 0D 00 00 6F 48 74 61 97 93 B0 74 B2 B1 B2 B2 B2 
 HI HI A6 C7 88 51 13 81 FF 0D 00 00 63 4O    61 97 (3 B0 5E B2 B0 B2 B1 B2 
 HI HI A6 C7 88 51 19 81 FE 0D 00 00 A0 4D 8C 61 97 93 B0 53 B2 B0 B2 B2 B2 
 HI HI A6 C7 88 51 1E 81 FF 0D 00 00 76 21 7E 61 97 93 B0    B2 B0 B2 B2 B2 
 HI HI A6 C7 88 51 04 81 FF 0D 00 00 58 31 7D 61 97 94 B0 42 B2 B0 B2 B2 B2 
                                   
